Ballenas Island, British Columbia

8:17 PM PST on December 10, 2017 (GMT -0800)
Ballenas Island

Weather History for CWGB - November, 2013

Change the Weather History Date:

Monday, November 18, 2013

  Actual Average Record
Temperature  
Mean Temperature 44 °F -  
Max Temperature 47 °F - - ()
Min Temperature 42 °F - - ()
Degree Days  
Heating Degree Days 20    
Moisture  
Dew Point 40 °F    
Average Humidity 82    
Maximum Humidity 93    
Minimum Humidity 63    
Precipitation  
Precipitation 0.20 in - - ()
Sea Level Pressure  
Sea Level Pressure 29.73 in    
Wind  
Wind Speed 3 mph ()    
Max Wind Speed 13 mph    
Max Gust Speed -    
T = Trace of Precipitation, MM = Missing Value Source: Averaged Metar Reports

Daily Weather History Graph

Daily Weather History Graph

Search for Another Location

Airport or City:

Trip Planner

Search our weather history database for the weather conditions in past years. The results will help you decide how hot, cold, wet, or windy it might be!

Date:

Astronomy

Nov. 18, 2013 Rise Set
Actual Time 7:32 AM PST 4:30 PM PST
Civil Twilight 6:57 AM PST 5:06 PM PST
Nautical Twilight 6:18 AM PST 5:45 PM PST
Astronomical Twilight 5:40 AM PST 6:22 PM PST
Moon 5:36 PM PST (11/18) 8:27 AM PST (11/18)
Length of Visible Light 10h 08m
Length of Day
8h 58m
Full, 99% of the Moon is Illuminated
Nov 18
Full
Nov 25
Last Quarter
Dec 2
New
Dec 9
First Quarter
Dec 17
Full

Hourly Weather History & Observations

Time (PST) Temp. Windchill Dew Point Humidity Pressure Visibility Wind Dir Wind Speed Gust Speed Precip Events Conditions
12:00 AM 47.1 °F - 36.3 °F 66% 29.82 in - SSE 2.3 mph - N/A   Unknown
1:00 AM 46.6 °F - 38.5 °F 73% 29.83 in - West 2.3 mph - N/A   Unknown
2:00 AM 45.9 °F - 37.8 °F 73% 29.83 in - SSW 1.2 mph - N/A   Unknown
3:00 AM 45.9 °F - 38.3 °F 75% 29.83 in - South 1.2 mph - N/A   Unknown
4:00 AM 46 °F - 38 °F 63% 29.82 in - SSW 1.2 mph - -  
4:00 AM 45.7 °F - 37.6 °F 73% 29.82 in - SSW 1.2 mph - N/A   Unknown
5:00 AM 45.5 °F - 38.3 °F 76% 29.82 in - Calm Calm - N/A   Unknown
6:00 AM 45.7 °F - 38.5 °F 76% 29.82 in - WNW 1.2 mph - N/A   Unknown
7:00 AM 45.0 °F - 38.3 °F 77% 29.82 in - South 1.2 mph - N/A   Unknown
8:00 AM 45.1 °F - 38.1 °F 76% 29.81 in - NW 1.2 mph - N/A   Unknown
9:00 AM 45.3 °F - 38.3 °F 76% 29.81 in - West 1.2 mph - N/A   Unknown
10:00 AM 45 °F - 39 °F 74% 29.81 in - WSW 2.3 mph - -  
10:00 AM 45.3 °F - 39.4 °F 80% 29.81 in - WSW 2.3 mph - N/A   Unknown
11:00 AM 46.2 °F 41.7 °F 41.0 °F 82% 29.79 in - ESE 9.2 mph - N/A   Unknown
12:00 PM 45.3 °F 42.3 °F 40.6 °F 84% 29.76 in - SE 5.8 mph - N/A   Unknown
1:00 PM 45.1 °F - 41.9 °F 88% 29.74 in - South 1.2 mph - 0.02 in   Unknown
2:00 PM 45.1 °F 43.7 °F 42.6 °F 91% 29.71 in - SE 3.5 mph - 0.03 in   Unknown
3:00 PM 45.3 °F 39.7 °F 42.8 °F 91% 29.69 in - ESE 11.5 mph - 0.06 in   Unknown
4:00 PM 45 °F - 42 °F 86% 29.66 in - East 12.7 mph - -  
4:00 PM 45.1 °F 39.1 °F 42.1 °F 89% 29.66 in - East 12.7 mph - 0.07 in   Unknown
5:00 PM 44.8 °F 39.4 °F 41.5 °F 88% 29.63 in - East 10.4 mph - 0.02 in   Unknown
6:00 PM 44.6 °F 40.7 °F 40.8 °F 87% 29.61 in - East 6.9 mph - 0.01 in   Unknown
7:00 PM 43.7 °F - 40.8 °F 90% 29.60 in - SE 1.2 mph - 0.01 in   Unknown
8:00 PM 42.8 °F 40.1 °F 40.6 °F 92% 29.59 in - SW 4.6 mph - 0.04 in   Unknown
9:00 PM 42.8 °F 38.6 °F 40.6 °F 92% 29.58 in - WSW 6.9 mph - 0.06 in   Unknown
10:00 PM 44 °F - 42 °F 88% 29.57 in - WSW 8.1 mph - -  
10:00 PM 43.5 °F 38.9 °F 41.5 °F 93% 29.57 in - WSW 8.1 mph - 0.03 in   Unknown
11:00 PM 44.1 °F 37.7 °F 41.7 °F 91% 29.58 in - West 12.7 mph - 0.01 in   Unknown